Time,TemperatureF,DewpointF,PressureIn,WindDirection,WindDirectionDegrees,WindSpeedMPH,WindSpeedGustMPH,Humidity,HourlyPrecipIn,Conditions,Clouds,dailyrainin,SoftwareType,DateUTC
2013-03-16 00:00:00,31.0,26.2,30.13,North,360,8.0,8.0,82,0.00,,,0.00,VWS V14.01,2013-03-16 06:00:00,
2013-03-16 00:15:00,30.0,25.8,30.14,NNE,22,8.0,8.0,84,0.00,,,0.00,VWS V14.01,2013-03-16 06:15:00,
2013-03-16 00:30:00,30.0,26.0,30.14,NNE,22,7.0,8.0,85,0.00,,,0.00,VWS V14.01,2013-03-16 06:30:00,
2013-03-16 00:45:00,30.0,26.0,30.15,North,360,7.0,7.0,85,0.00,,,0.00,VWS V14.01,2013-03-16 06:45:00,
2013-03-16 01:00:00,30.0,26.0,30.15,North,360,6.0,7.0,85,0.00,,,0.00,VWS V14.01,2013-03-16 07:00:00,
2013-03-16 01:15:00,30.0,28.5,30.14,North,360,8.0,8.0,94,0.00,,,0.00,VWS V14.01,2013-03-16 07:15:00,
2013-03-16 01:30:00,30.0,28.5,30.15,North,360,11.0,11.0,94,0.00,,,0.00,VWS V14.01,2013-03-16 07:30:00,
2013-03-16 01:45:00,30.0,28.2,30.15,NNW,337,11.0,11.0,93,0.00,,,0.00,VWS V14.01,2013-03-16 07:45:00,
2013-03-16 02:00:00,29.0,27.5,30.15,North,360,11.0,11.0,94,0.00,,,0.00,VWS V14.01,2013-03-16 08:00:00,
2013-03-16 02:15:00,29.0,27.8,30.15,North,360,10.0,11.0,95,0.00,,,0.00,VWS V14.01,2013-03-16 08:15:00,
2013-03-16 02:30:00,29.0,27.8,30.15,NNW,337,11.0,11.0,95,0.00,,,0.00,VWS V14.01,2013-03-16 08:30:00,
2013-03-16 02:45:00,29.0,27.8,30.15,North,360,9.0,11.0,95,0.00,,,0.00,VWS V14.01,2013-03-16 08:45:00,
2013-03-16 03:00:00,29.0,28.0,30.15,North,360,8.0,9.0,96,0.00,,,0.00,VWS V14.01,2013-03-16 09:00:00,
2013-03-16 03:15:00,28.0,26.8,30.15,North,360,7.0,8.0,95,0.00,,,0.00,VWS V14.01,2013-03-16 09:15:00,
2013-03-16 03:30:00,28.0,27.0,30.15,North,360,8.0,8.0,96,0.00,,,0.00,VWS V14.01,2013-03-16 09:30:00,
2013-03-16 03:45:00,28.0,26.8,30.15,NNE,22,7.0,8.0,95,0.00,,,0.00,VWS V14.01,2013-03-16 09:45:00,
2013-03-16 04:00:00,28.0,26.8,30.15,North,360,6.0,7.0,95,0.00,,,0.00,VWS V14.01,2013-03-16 10:00:00,
2013-03-16 04:15:00,27.0,25.8,30.16,North,360,8.0,8.0,95,0.00,,,0.00,VWS V14.01,2013-03-16 10:15:00,
2013-03-16 04:30:00,27.0,25.8,30.16,North,360,8.0,8.0,95,0.00,,,0.00,VWS V14.01,2013-03-16 10:30:00,
2013-03-16 04:45:00,27.0,25.8,30.16,North,360,9.0,9.0,95,0.00,,,0.00,VWS V14.01,2013-03-16 10:45:00,
2013-03-16 05:00:00,27.0,25.8,30.16,North,360,7.0,9.0,95,0.00,,,0.00,VWS V14.01,2013-03-16 11:00:00,
2013-03-16 05:15:00,27.0,25.8,30.15,NNE,22,8.0,8.0,95,0.00,,,0.00,VWS V14.01,2013-03-16 11:15:00,
2013-03-16 05:30:00,27.0,25.8,30.16,NE,45,2.0,8.0,95,0.00,,,0.00,VWS V14.01,2013-03-16 11:30:00,
2013-03-16 05:45:00,27.0,25.8,30.15,NE,45,1.0,2.0,95,0.00,,,0.00,VWS V14.01,2013-03-16 11:45:00,
2013-03-16 05:54:00,27.0,26.0,30.15,NE,45,6.0,6.0,96,0.00,,,0.00,VWS V14.01,2013-03-16 11:54:00,
2013-03-16 05:55:00,27.0,26.0,30.15,NE,45,5.0,6.0,96,0.00,,,0.00,VWS V14.01,2013-03-16 11:55:00,
2013-03-16 05:56:00,27.0,26.0,30.15,NE,45,4.0,6.0,96,0.00,,,0.00,VWS V14.01,2013-03-16 11:56:00,
2013-03-16 05:57:00,27.0,26.0,30.15,NE,45,4.0,6.0,96,0.00,,,0.00,VWS V14.01,2013-03-16 11:57:00,
2013-03-16 05:58:00,27.0,26.0,30.15,NE,45,0.0,6.0,96,0.00,,,0.00,VWS V14.01,2013-03-16 11:58:00,
2013-03-16 05:59:00,27.0,26.0,30.15,NE,45,0.0,6.0,96,0.00,,,0.00,VWS V14.01,2013-03-16 11:59:00,
2013-03-16 06:00:00,27.0,26.0,30.15,NE,45,0.0,6.0,96,0.00,,,0.00,VWS V14.01,2013-03-16 12:00:00,
2013-03-16 06:01:00,27.0,26.0,30.15,NE,45,0.0,3.0,96,0.00,,,0.00,VWS V14.01,2013-03-16 12:01:00,
2013-03-16 06:02:00,27.0,26.0,30.15,NNE,22,2.0,4.0,96,0.00,,,0.00,VWS V14.01,2013-03-16 12:02:00,
2013-03-16 06:03:00,27.0,26.0,30.15,NE,45,0.0,4.0,96,0.00,,,0.00,VWS V14.01,2013-03-16 12:03:00,
2013-03-16 06:04:00,27.0,26.0,30.15,NE,45,1.0,4.0,96,0.00,,,0.00,VWS V14.01,2013-03-16 12:04:00,
2013-03-16 06:05:00,27.0,26.0,30.15,NE,45,1.0,4.0,96,0.00,,,0.00,VWS V14.01,2013-03-16 12:05:00,
2013-03-16 06:06:00,27.0,26.3,30.15,NE,45,0.0,4.0,97,0.00,,,0.00,VWS V14.01,2013-03-16 12:06:00,
2013-03-16 07:03:00,27.0,26.0,30.15,NE,45,1.0,4.0,96,0.00,,,0.00,VWS V14.01,2013-03-16 13:03:00,
2013-03-16 07:08:00,27.0,26.0,30.15,ENE,67,2.0,5.0,96,0.00,,,0.00,VWS V14.01,2013-03-16 13:08:00,
2013-03-16 07:13:00,27.0,26.0,30.15,ENE,67,0.0,3.0,96,0.00,,,0.00,VWS V14.01,2013-03-16 13:13:00,
2013-03-16 07:18:00,27.0,26.0,30.15,ENE,67,4.0,4.0,96,0.00,,,0.00,VWS V14.01,2013-03-16 13:18:00,
2013-03-16 07:23:00,27.0,26.3,30.15,NE,45,4.0,7.0,97,0.00,,,0.00,VWS V14.01,2013-03-16 13:23:00,
2013-03-16 07:28:00,27.0,26.3,30.15,ENE,67,1.0,6.0,97,0.00,,,0.00,VWS V14.01,2013-03-16 13:28:00,
2013-03-16 07:33:00,27.0,26.3,30.15,ENE,67,0.0,5.0,97,0.00,,,0.00,VWS V14.01,2013-03-16 13:33:00,
2013-03-16 07:38:00,27.0,26.3,30.15,ENE,67,3.0,4.0,97,0.00,,,0.00,VWS V14.01,2013-03-16 13:38:00,
2013-03-16 07:43:00,27.0,26.3,30.15,East,90,0.0,5.0,97,0.00,,,0.00,VWS V14.01,2013-03-16 13:43:00,
2013-03-16 07:48:00,27.0,26.3,30.15,NE,45,0.0,3.0,97,0.00,,,0.00,VWS V14.01,2013-03-16 13:48:00,
2013-03-16 07:53:00,27.0,26.3,30.14,NE,45,0.0,1.0,97,0.00,,,0.00,VWS V14.01,2013-03-16 13:53:00,
2013-03-16 07:58:00,27.0,26.3,30.14,ESE,112,1.0,3.0,97,0.00,,,0.00,VWS V14.01,2013-03-16 13:58:00,
2013-03-16 08:03:00,27.0,26.3,30.15,SE,135,0.0,6.0,97,0.00,,,0.00,VWS V14.01,2013-03-16 14:03:00,
2013-03-16 08:08:00,27.0,26.3,30.15,SE,135,0.0,0.0,97,0.00,,,0.00,VWS V14.01,2013-03-16 14:08:00,
2013-03-16 08:13:00,27.0,26.3,30.15,SE,135,0.0,0.0,97,0.00,,,0.00,VWS V14.01,2013-03-16 14:13:00,
2013-03-16 08:18:00,27.0,26.3,30.15,East,90,1.0,1.0,97,0.00,,,0.00,VWS V14.01,2013-03-16 14:18:00,
2013-03-16 08:23:00,27.0,26.3,30.15,SE,135,6.0,6.0,97,0.00,,,0.00,VWS V14.01,2013-03-16 14:23:00,
2013-03-16 08:28:00,27.0,26.3,30.15,SE,135,3.0,8.0,97,0.00,,,0.00,VWS V14.01,2013-03-16 14:28:00,
2013-03-16 08:33:00,27.0,26.3,30.15,SE,135,4.0,7.0,97,0.00,,,0.00,VWS V14.01,2013-03-16 14:33:00,
2013-03-16 08:38:00,27.0,26.3,30.15,SE,135,0.0,6.0,97,0.00,,,0.00,VWS V14.01,2013-03-16 14:38:00,
2013-03-16 08:43:00,27.0,26.3,30.15,ESE,112,1.0,6.0,97,0.00,,,0.00,VWS V14.01,2013-03-16 14:43:00,
2013-03-16 08:48:00,27.0,26.3,30.15,East,90,0.0,8.0,97,0.00,,,0.00,VWS V14.01,2013-03-16 14:48:00,
2013-03-16 08:53:00,27.0,26.3,30.15,East,90,0.0,7.0,97,0.00,,,0.00,VWS V14.01,2013-03-16 14:53:00,
2013-03-16 08:58:00,27.0,26.3,30.15,SE,135,1.0,6.0,97,0.00,,,0.00,VWS V14.01,2013-03-16 14:58:00,
2013-03-16 09:03:00,27.0,26.3,30.15,SE,135,7.0,9.0,97,0.00,,,0.00,VWS V14.01,2013-03-16 15:03:00,
2013-03-16 09:08:00,28.0,27.3,30.15,SE,135,6.0,10.0,97,0.00,,,0.00,VWS V14.01,2013-03-16 15:08:00,
2013-03-16 09:13:00,28.0,27.3,30.15,South,180,4.0,10.0,97,0.00,,,0.00,VWS V14.01,2013-03-16 15:13:00,
2013-03-16 09:18:00,28.0,27.3,30.15,SSE,157,6.0,7.0,97,0.00,,,0.00,VWS V14.01,2013-03-16 15:18:00,
2013-03-16 09:23:00,28.0,27.3,30.15,SE,135,2.0,10.0,97,0.00,,,0.00,VWS V14.01,2013-03-16 15:23:00,
2013-03-16 09:28:00,28.0,27.3,30.15,ESE,112,1.0,10.0,97,0.00,,,0.00,VWS V14.01,2013-03-16 15:28:00,
2013-03-16 09:33:00,28.0,27.3,30.15,SE,135,8.0,12.0,97,0.00,,,0.00,VWS V14.01,2013-03-16 15:33:00,
2013-03-16 09:38:00,28.0,27.3,30.15,SSE,157,8.0,8.0,97,0.00,,,0.00,VWS V14.01,2013-03-16 15:38:00,
2013-03-16 09:43:00,28.0,27.3,30.15,SSE,157,5.0,7.0,97,0.00,,,0.00,VWS V14.01,2013-03-16 15:43:00,
2013-03-16 09:48:00,28.0,27.3,30.15,SE,135,7.0,7.0,97,0.00,,,0.00,VWS V14.01,2013-03-16 15:48:00,
2013-03-16 09:53:00,28.0,27.3,30.15,SE,135,8.0,9.0,97,0.00,,,0.00,VWS V14.01,2013-03-16 15:53:00,
2013-03-16 09:58:00,28.0,27.3,30.15,SE,135,8.0,10.0,97,0.00,,,0.00,VWS V14.01,2013-03-16 15:58:00,
2013-03-16 10:04:00,28.0,27.3,30.14,SE,135,9.0,12.0,97,0.00,,,0.00,VWS V14.01,2013-03-16 16:04:00,
2013-03-16 10:09:00,28.0,27.3,30.14,SSE,157,5.0,9.0,97,0.00,,,0.00,VWS V14.01,2013-03-16 16:09:00,
2013-03-16 10:14:00,29.0,28.3,30.15,SE,135,11.0,11.0,97,0.00,,,0.00,VWS V14.01,2013-03-16 16:14:00,
2013-03-16 10:19:00,29.0,28.0,30.15,ESE,112,9.0,9.0,96,0.00,,,0.00,VWS V14.01,2013-03-16 16:19:00,
2013-03-16 10:24:00,29.0,27.8,30.14,SE,135,6.0,8.0,95,0.00,,,0.00,VWS V14.01,2013-03-16 16:24:00,
2013-03-16 10:29:00,28.0,27.0,30.14,SE,135,5.0,8.0,96,0.00,,,0.00,VWS V14.01,2013-03-16 16:29:00,
2013-03-16 10:34:00,29.0,28.0,30.14,ESE,112,7.0,7.0,96,0.00,,,0.00,VWS V14.01,2013-03-16 16:34:00,
2013-03-16 10:39:00,29.0,28.0,30.14,SE,135,7.0,8.0,96,0.00,,,0.00,VWS V14.01,2013-03-16 16:39:00,
2013-03-16 10:44:00,29.0,28.0,30.14,SE,135,9.0,10.0,96,0.00,,,0.00,VWS V14.01,2013-03-16 16:44:00,
2013-03-16 10:49:00,29.0,27.8,30.14,SSE,157,8.0,10.0,95,0.00,,,0.00,VWS V14.01,2013-03-16 16:49:00,
2013-03-16 10:54:00,29.0,28.3,30.13,SE,135,6.0,7.0,97,0.00,,,0.00,VWS V14.01,2013-03-16 16:54:00,
2013-03-16 10:59:00,29.0,28.3,30.13,SE,135,7.0,9.0,97,0.00,,,0.00,VWS V14.01,2013-03-16 16:59:00,
2013-03-16 11:04:00,29.0,28.3,30.13,ESE,112,0.0,5.0,97,0.00,,,0.00,VWS V14.01,2013-03-16 17:04:00,
2013-03-16 11:09:00,29.0,28.3,30.13,ESE,112,7.0,7.0,97,0.00,,,0.00,VWS V14.01,2013-03-16 17:09:00,
2013-03-16 11:14:00,29.0,28.3,30.14,ESE,112,9.0,9.0,97,0.00,,,0.00,VWS V14.01,2013-03-16 17:14:00,
2013-03-16 11:19:00,29.0,28.3,30.14,SE,135,8.0,11.0,97,0.00,,,0.00,VWS V14.01,2013-03-16 17:19:00,
2013-03-16 11:24:00,29.0,28.3,30.13,ESE,112,8.0,9.0,97,0.00,,,0.00,VWS V14.01,2013-03-16 17:24:00,
2013-03-16 11:29:00,29.0,27.2,30.13,SE,135,7.0,10.0,93,0.00,,,0.00,VWS V14.01,2013-03-16 17:29:00,
2013-03-16 11:34:00,29.0,25.9,30.13,SE,135,10.0,10.0,88,0.00,,,0.00,VWS V14.01,2013-03-16 17:34:00,
2013-03-16 11:39:00,28.0,24.1,30.13,SE,135,6.0,10.0,85,0.00,,,0.00,VWS V14.01,2013-03-16 17:39:00,
2013-03-16 11:44:00,28.0,23.5,30.13,SE,135,7.0,9.0,83,0.00,,,0.00,VWS V14.01,2013-03-16 17:44:00,
2013-03-16 11:49:00,28.0,22.6,30.13,ESE,112,5.0,10.0,80,0.00,,,0.00,VWS V14.01,2013-03-16 17:49:00,
2013-03-16 11:54:00,28.0,21.7,30.13,SE,135,7.0,9.0,77,0.00,,,0.00,VWS V14.01,2013-03-16 17:54:00,
2013-03-16 11:59:00,28.0,20.5,30.13,SE,135,6.0,9.0,73,0.00,,,0.00,VWS V14.01,2013-03-16 17:59:00,
2013-03-16 12:04:00,28.0,20.2,30.13,SE,135,10.0,10.0,72,0.00,,,0.00,VWS V14.01,2013-03-16 18:04:00,
2013-03-16 12:09:00,28.0,19.5,30.13,SE,135,5.0,10.0,70,0.00,,,0.00,VWS V14.01,2013-03-16 18:09:00,
2013-03-16 12:14:00,28.0,19.5,30.13,SE,135,3.0,10.0,70,0.00,,,0.00,VWS V14.01,2013-03-16 18:14:00,
2013-03-16 12:19:00,29.0,19.8,30.13,SE,135,8.0,9.0,68,0.00,,,0.00,VWS V14.01,2013-03-16 18:19:00,
2013-03-16 12:24:00,29.0,20.1,30.11,SE,135,7.0,12.0,69,0.00,,,0.00,VWS V14.01,2013-03-16 18:24:00,
2013-03-16 12:29:00,29.0,20.5,30.11,SE,135,8.0,12.0,70,0.00,,,0.00,VWS V14.01,2013-03-16 18:29:00,
2013-03-16 12:34:00,29.0,20.1,30.11,South,180,8.0,12.0,69,0.00,,,0.00,VWS V14.01,2013-03-16 18:34:00,
2013-03-16 12:39:00,29.0,20.1,30.11,SE,135,9.0,12.0,69,0.00,,,0.00,VWS V14.01,2013-03-16 18:39:00,
2013-03-16 12:44:00,29.0,20.1,30.11,SE,135,13.0,13.0,69,0.00,,,0.00,VWS V14.01,2013-03-16 18:44:00,
2013-03-16 12:49:00,29.0,19.8,30.11,SSE,157,9.0,12.0,68,0.00,,,0.00,VWS V14.01,2013-03-16 18:49:00,
2013-03-16 12:54:00,29.0,19.8,30.11,SE,135,10.0,12.0,68,0.00,,,0.00,VWS V14.01,2013-03-16 18:54:00,
2013-03-16 12:59:00,28.0,18.8,30.11,SE,135,9.0,13.0,68,0.00,,,0.00,VWS V14.01,2013-03-16 18:59:00,
2013-03-16 13:04:00,28.0,18.8,30.10,SE,135,11.0,14.0,68,0.00,,,0.00,VWS V14.01,2013-03-16 19:04:00,
2013-03-16 13:09:00,28.0,19.2,30.10,SE,135,9.0,15.0,69,0.00,,,0.00,VWS V14.01,2013-03-16 19:09:00,
2013-03-16 13:14:00,28.0,19.2,30.10,SE,135,10.0,15.0,69,0.00,,,0.00,VWS V14.01,2013-03-16 19:14:00,
2013-03-16 13:19:00,28.0,19.2,30.10,SSE,157,10.0,15.0,69,0.00,,,0.00,VWS V14.01,2013-03-16 19:19:00,
2013-03-16 13:24:00,28.0,18.8,30.10,SE,135,13.0,15.0,68,0.00,,,0.00,VWS V14.01,2013-03-16 19:24:00,
2013-03-16 13:29:00,29.0,20.1,30.09,SE,135,12.0,15.0,69,0.00,,,0.00,VWS V14.01,2013-03-16 19:29:00,
2013-03-16 13:34:00,29.0,19.8,30.09,SE,135,14.0,15.0,68,0.00,,,0.00,VWS V14.01,2013-03-16 19:34:00,
2013-03-16 13:40:00,29.0,19.8,30.08,SE,135,7.0,15.0,68,0.00,,,0.00,VWS V14.01,2013-03-16 19:40:00,
2013-03-16 13:45:00,29.0,19.4,30.08,SE,135,13.0,13.0,67,0.00,,,0.00,VWS V14.01,2013-03-16 19:45:00,
2013-03-16 13:50:00,29.0,20.1,30.07,SE,135,13.0,15.0,69,0.00,,,0.00,VWS V14.01,2013-03-16 19:50:00,
2013-03-16 13:55:00,29.0,19.4,30.07,SE,135,8.0,15.0,67,0.01,,,0.01,VWS V14.01,2013-03-16 19:55:00,
2013-03-16 14:00:00,29.0,20.1,30.07,SE,135,12.0,13.0,69,0.01,,,0.01,VWS V14.01,2013-03-16 20:00:00,
2013-03-16 14:05:00,29.0,19.4,30.07,SSE,157,9.0,12.0,67,0.01,,,0.01,VWS V14.01,2013-03-16 20:05:00,
2013-03-16 14:10:00,29.0,19.8,30.07,SE,135,12.0,13.0,68,0.01,,,0.01,VWS V14.01,2013-03-16 20:10:00,
2013-03-16 14:15:00,29.0,19.4,30.07,SE,135,12.0,15.0,67,0.01,,,0.01,VWS V14.01,2013-03-16 20:15:00,
2013-03-16 14:20:00,29.0,19.4,30.06,SSE,157,9.0,13.0,67,0.02,,,0.02,VWS V14.01,2013-03-16 20:20:00,
2013-03-16 14:25:00,29.0,19.4,30.06,SSE,157,13.0,15.0,67,0.02,,,0.02,VWS V14.01,2013-03-16 20:25:00,
2013-03-16 14:30:00,29.0,19.8,30.06,SSE,157,12.0,16.0,68,0.02,,,0.02,VWS V14.01,2013-03-16 20:30:00,
2013-03-16 14:35:00,29.0,19.4,30.06,SSE,157,11.0,16.0,67,0.02,,,0.02,VWS V14.01,2013-03-16 20:35:00,
2013-03-16 14:40:00,30.0,21.8,30.05,SE,135,11.0,17.0,71,0.02,,,0.02,VWS V14.01,2013-03-16 20:40:00,
2013-03-16 14:45:00,29.0,19.8,30.05,SSE,157,13.0,16.0,68,0.02,,,0.02,VWS V14.01,2013-03-16 20:45:00,
2013-03-16 14:50:00,29.0,19.8,30.05,SSE,157,13.0,16.0,68,0.02,,,0.02,VWS V14.01,2013-03-16 20:50:00,
2013-03-16 14:55:00,29.0,20.8,30.05,SSE,157,12.0,17.0,71,0.02,,,0.02,VWS V14.01,2013-03-16 20:55:00,
2013-03-16 15:00:00,29.0,23.0,30.05,SSE,157,12.0,16.0,78,0.01,,,0.02,VWS V14.01,2013-03-16 21:00:00,
2013-03-16 15:05:00,29.0,21.1,30.05,SSE,157,8.0,15.0,72,0.01,,,0.02,VWS V14.01,2013-03-16 21:05:00,
2013-03-16 15:10:00,29.0,20.5,30.04,SE,135,10.0,17.0,70,0.01,,,0.02,VWS V14.01,2013-03-16 21:10:00,
2013-03-16 15:15:00,29.0,20.5,30.04,SSE,157,13.0,16.0,70,0.01,,,0.02,VWS V14.01,2013-03-16 21:15:00,
2013-03-16 15:20:00,29.0,20.5,30.05,SE,135,13.0,16.0,70,0.01,,,0.02,VWS V14.01,2013-03-16 21:20:00,
2013-03-16 15:25:00,29.0,19.8,30.05,SSE,157,11.0,13.0,68,0.00,,,0.02,VWS V14.01,2013-03-16 21:25:00,
2013-03-16 15:30:00,29.0,20.5,30.04,SE,135,7.0,13.0,70,0.00,,,0.02,VWS V14.01,2013-03-16 21:30:00,
2013-03-16 15:35:00,29.0,19.8,30.04,SE,135,11.0,13.0,68,0.00,,,0.02,VWS V14.01,2013-03-16 21:35:00,
2013-03-16 15:40:00,29.0,19.4,30.04,SE,135,9.0,12.0,67,0.00,,,0.02,VWS V14.01,2013-03-16 21:40:00,
2013-03-16 15:45:00,29.0,18.7,30.04,SE,135,6.0,12.0,65,0.00,,,0.02,VWS V14.01,2013-03-16 21:45:00,
2013-03-16 15:50:00,29.0,19.4,30.04,SE,135,7.0,13.0,67,0.01,,,0.03,VWS V14.01,2013-03-16 21:50:00,
2013-03-16 15:55:00,29.0,18.7,30.04,SE,135,5.0,10.0,65,0.01,,,0.03,VWS V14.01,2013-03-16 21:55:00,
2013-03-16 16:00:00,29.0,19.4,30.04,SE,135,8.0,9.0,67,0.01,,,0.03,VWS V14.01,2013-03-16 22:00:00,
2013-03-16 16:05:00,29.0,19.4,30.04,ESE,112,7.0,7.0,67,0.01,,,0.03,VWS V14.01,2013-03-16 22:05:00,
2013-03-16 16:10:00,29.0,20.1,30.04,ESE,112,5.0,5.0,69,0.01,,,0.03,VWS V14.01,2013-03-16 22:10:00,
2013-03-16 16:15:00,29.0,20.1,30.04,East,90,4.0,5.0,69,0.01,,,0.03,VWS V14.01,2013-03-16 22:15:00,
2013-03-16 16:20:00,29.0,21.4,30.04,East,90,4.0,4.0,73,0.01,,,0.03,VWS V14.01,2013-03-16 22:20:00,
2013-03-16 16:25:00,29.0,21.4,30.04,East,90,0.0,3.0,73,0.01,,,0.03,VWS V14.01,2013-03-16 22:25:00,
2013-03-16 16:30:00,29.0,22.1,30.03,East,90,3.0,4.0,75,0.01,,,0.03,VWS V14.01,2013-03-16 22:30:00,
2013-03-16 16:35:00,29.0,22.7,30.03,ESE,112,7.0,7.0,77,0.01,,,0.03,VWS V14.01,2013-03-16 22:35:00,
2013-03-16 16:40:00,29.0,22.7,30.03,East,90,0.0,3.0,77,0.01,,,0.03,VWS V14.01,2013-03-16 22:40:00,
2013-03-16 16:45:00,29.0,21.1,30.03,East,90,2.0,3.0,72,0.01,,,0.03,VWS V14.01,2013-03-16 22:45:00,
2013-03-16 16:50:00,29.0,21.1,30.03,ESE,112,2.0,2.0,72,0.00,,,0.03,VWS V14.01,2013-03-16 22:50:00,
2013-03-16 16:55:00,29.0,20.5,30.03,ESE,112,7.0,8.0,70,0.00,,,0.03,VWS V14.01,2013-03-16 22:55:00,
2013-03-16 17:00:00,29.0,20.1,30.03,ESE,112,7.0,8.0,69,0.00,,,0.03,VWS V14.01,2013-03-16 23:00:00,
2013-03-16 17:05:00,28.0,18.5,30.03,ESE,112,6.0,8.0,67,0.00,,,0.03,VWS V14.01,2013-03-16 23:05:00,
2013-03-16 17:10:00,29.0,19.1,30.03,ESE,112,7.0,9.0,66,0.00,,,0.03,VWS V14.01,2013-03-16 23:10:00,
2013-03-16 17:15:00,29.0,18.7,30.03,SE,135,7.0,7.0,65,0.00,,,0.03,VWS V14.01,2013-03-16 23:15:00,
2013-03-16 17:20:00,29.0,18.4,30.03,SE,135,8.0,9.0,64,0.00,,,0.03,VWS V14.01,2013-03-16 23:20:00,
2013-03-16 17:25:00,29.0,18.0,30.03,ESE,112,9.0,11.0,63,0.00,,,0.03,VWS V14.01,2013-03-16 23:25:00,
2013-03-16 17:30:00,29.0,18.0,30.04,ESE,112,7.0,7.0,63,0.00,,,0.03,VWS V14.01,2013-03-16 23:30:00,
2013-03-16 17:35:00,29.0,17.6,30.04,SE,135,7.0,10.0,62,0.00,,,0.03,VWS V14.01,2013-03-16 23:35:00,
2013-03-16 17:40:00,29.0,17.6,30.04,ESE,112,9.0,9.0,62,0.00,,,0.03,VWS V14.01,2013-03-16 23:40:00,
2013-03-16 17:45:00,28.0,16.7,30.04,ESE,112,1.0,6.0,62,0.00,,,0.03,VWS V14.01,2013-03-16 23:45:00,
2013-03-16 17:50:00,28.0,17.0,30.05,SE,135,4.0,7.0,63,0.00,,,0.03,VWS V14.01,2013-03-16 23:50:00,
2013-03-16 17:55:00,28.0,17.0,30.05,ESE,112,7.0,7.0,63,0.00,,,0.03,VWS V14.01,2013-03-16 23:55:00,
2013-03-16 18:00:00,28.0,17.0,30.05,ESE,112,8.0,8.0,63,0.00,,,0.03,VWS V14.01,2013-03-17 00:00:00,
2013-03-16 18:05:00,28.0,17.0,30.05,ESE,112,4.0,6.0,63,0.00,,,0.03,VWS V14.01,2013-03-17 00:05:00,
2013-03-16 18:10:00,28.0,17.0,30.05,East,90,0.0,6.0,63,0.00,,,0.03,VWS V14.01,2013-03-17 00:10:00,
2013-03-16 18:15:00,27.0,16.5,30.05,East,90,7.0,10.0,64,0.00,,,0.03,VWS V14.01,2013-03-17 00:15:00,
2013-03-16 18:20:00,27.0,16.8,30.06,East,90,9.0,10.0,65,0.00,,,0.03,VWS V14.01,2013-03-17 00:20:00,
2013-03-16 18:25:00,27.0,16.8,30.06,East,90,7.0,9.0,65,0.00,,,0.03,VWS V14.01,2013-03-17 00:25:00,
2013-03-16 18:30:00,27.0,16.8,30.04,ESE,112,8.0,12.0,65,0.00,,,0.03,VWS V14.01,2013-03-17 00:30:00,
2013-03-16 18:35:00,26.0,16.2,30.04,ESE,112,13.0,16.0,66,0.00,,,0.03,VWS V14.01,2013-03-17 00:35:00,
2013-03-16 18:40:00,26.0,16.2,30.05,ESE,112,9.0,10.0,66,0.00,,,0.03,VWS V14.01,2013-03-17 00:40:00,
2013-03-16 18:45:00,26.0,16.2,30.05,ESE,112,9.0,14.0,66,0.00,,,0.03,VWS V14.01,2013-03-17 00:45:00,
2013-03-16 18:50:00,26.0,16.2,30.07,ESE,112,12.0,14.0,66,0.00,,,0.03,VWS V14.01,2013-03-17 00:50:00,
2013-03-16 18:55:00,26.0,16.2,30.07,ESE,112,11.0,11.0,66,0.00,,,0.03,VWS V14.01,2013-03-17 00:55:00,
2013-03-16 19:01:00,26.0,16.2,30.08,East,90,8.0,11.0,66,0.00,,,0.03,VWS V14.01,2013-03-17 01:01:00,
2013-03-16 19:06:00,26.0,16.2,30.08,East,90,7.0,9.0,66,0.00,,,0.03,VWS V14.01,2013-03-17 01:06:00,
2013-03-16 19:11:00,26.0,16.6,30.08,ESE,112,9.0,10.0,67,0.00,,,0.03,VWS V14.01,2013-03-17 01:11:00,
2013-03-16 19:16:00,26.0,16.2,30.08,East,90,6.0,8.0,66,0.00,,,0.03,VWS V14.01,2013-03-17 01:16:00,
2013-03-16 19:21:00,26.0,16.6,30.08,East,90,12.0,12.0,67,0.00,,,0.03,VWS V14.01,2013-03-17 01:21:00,
2013-03-16 19:26:00,26.0,16.2,30.08,East,90,6.0,10.0,66,0.00,,,0.03,VWS V14.01,2013-03-17 01:26:00,
2013-03-16 19:31:00,25.0,15.6,30.08,East,90,9.0,10.0,67,0.00,,,0.03,VWS V14.01,2013-03-17 01:31:00,
2013-03-16 19:36:00,25.0,15.6,30.08,East,90,9.0,9.0,67,0.00,,,0.03,VWS V14.01,2013-03-17 01:36:00,
2013-03-16 19:41:00,25.0,15.6,30.07,East,90,6.0,10.0,67,0.00,,,0.03,VWS V14.01,2013-03-17 01:41:00,
2013-03-16 19:46:00,25.0,15.3,30.07,East,90,12.0,12.0,66,0.00,,,0.03,VWS V14.01,2013-03-17 01:46:00,
2013-03-16 19:51:00,25.0,15.6,30.08,East,90,9.0,9.0,67,0.00,,,0.03,VWS V14.01,2013-03-17 01:51:00,
2013-03-16 19:56:00,25.0,15.6,30.08,East,90,9.0,11.0,67,0.00,,,0.03,VWS V14.01,2013-03-17 01:56:00,
2013-03-16 20:01:00,25.0,15.6,30.08,East,90,7.0,9.0,67,0.00,,,0.03,VWS V14.01,2013-03-17 02:01:00,
2013-03-16 20:07:00,25.0,15.6,30.08,East,90,7.0,10.0,67,0.00,,,0.03,VWS V14.01,2013-03-17 02:07:00,
2013-03-16 20:12:00,25.0,15.6,30.08,East,90,9.0,11.0,67,0.00,,,0.03,VWS V14.01,2013-03-17 02:12:00,
2013-03-16 20:17:00,25.0,15.6,30.08,East,90,6.0,8.0,67,0.00,,,0.03,VWS V14.01,2013-03-17 02:17:00,
2013-03-16 20:22:00,25.0,15.9,30.08,ESE,112,4.0,10.0,68,0.00,,,0.03,VWS V14.01,2013-03-17 02:22:00,
2013-03-16 20:27:00,25.0,15.9,30.08,East,90,9.0,10.0,68,0.00,,,0.03,VWS V14.01,2013-03-17 02:27:00,
2013-03-16 20:32:00,25.0,15.9,30.09,ENE,67,10.0,12.0,68,0.00,,,0.03,VWS V14.01,2013-03-17 02:32:00,
2013-03-16 20:37:00,25.0,15.9,30.09,East,90,7.0,11.0,68,0.00,,,0.03,VWS V14.01,2013-03-17 02:37:00,
2013-03-16 20:42:00,24.0,15.3,30.09,East,90,10.0,11.0,69,0.00,,,0.03,VWS V14.01,2013-03-17 02:42:00,
2013-03-16 20:47:00,24.0,15.3,30.09,ESE,112,3.0,11.0,69,0.00,,,0.03,VWS V14.01,2013-03-17 02:47:00,
2013-03-16 20:52:00,24.0,15.3,30.09,ESE,112,4.0,9.0,69,0.00,,,0.03,VWS V14.01,2013-03-17 02:52:00,
2013-03-16 20:57:00,24.0,15.3,30.09,East,90,10.0,10.0,69,0.00,,,0.03,VWS V14.01,2013-03-17 02:57:00,
2013-03-16 21:02:00,24.0,15.6,30.09,ESE,112,9.0,9.0,70,0.00,,,0.03,VWS V14.01,2013-03-17 03:02:00,
2013-03-16 21:07:00,24.0,15.6,30.09,East,90,5.0,9.0,70,0.00,,,0.03,VWS V14.01,2013-03-17 03:07:00,
2013-03-16 21:12:00,24.0,16.0,30.09,East,90,5.0,7.0,71,0.00,,,0.03,VWS V14.01,2013-03-17 03:12:00,
2013-03-16 21:17:00,24.0,16.0,30.09,ESE,112,7.0,9.0,71,0.00,,,0.03,VWS V14.01,2013-03-17 03:17:00,
2013-03-16 21:22:00,24.0,16.0,30.09,ESE,112,7.0,9.0,71,0.00,,,0.03,VWS V14.01,2013-03-17 03:22:00,
2013-03-16 21:27:00,24.0,16.0,30.09,East,90,0.0,6.0,71,0.00,,,0.03,VWS V14.01,2013-03-17 03:27:00,
2013-03-16 21:32:00,24.0,16.0,30.09,East,90,6.0,7.0,71,0.00,,,0.03,VWS V14.01,2013-03-17 03:32:00,
2013-03-16 21:37:00,24.0,16.0,30.09,SE,135,1.0,7.0,71,0.00,,,0.03,VWS V14.01,2013-03-17 03:37:00,
2013-03-16 21:42:00,24.0,16.0,30.08,ESE,112,7.0,8.0,71,0.00,,,0.03,VWS V14.01,2013-03-17 03:42:00,
2013-03-16 21:47:00,24.0,16.0,30.08,East,90,4.0,7.0,71,0.00,,,0.03,VWS V14.01,2013-03-17 03:47:00,
2013-03-16 21:52:00,24.0,16.0,30.08,ESE,112,6.0,10.0,71,0.00,,,0.03,VWS V14.01,2013-03-17 03:52:00,
2013-03-16 21:57:00,24.0,16.0,30.08,ESE,112,7.0,10.0,71,0.00,,,0.03,VWS V14.01,2013-03-17 03:57:00,
2013-03-16 22:00:00,24.0,16.3,30.07,East,90,8.0,10.0,72,0.00,,,0.03,VWS V14.01,2013-03-17 04:00:00,
2013-03-16 22:05:00,24.0,16.0,30.07,East,90,6.0,11.0,71,0.00,,,0.03,VWS V14.01,2013-03-17 04:05:00,
2013-03-16 22:10:00,24.0,16.3,30.06,ESE,112,6.0,7.0,72,0.00,,,0.03,VWS V14.01,2013-03-17 04:10:00,
2013-03-16 22:15:00,23.0,15.3,30.06,ESE,112,7.0,9.0,72,0.00,,,0.03,VWS V14.01,2013-03-17 04:15:00,
2013-03-16 22:21:00,23.0,15.6,30.07,ESE,112,7.0,10.0,73,0.00,,,0.03,VWS V14.01,2013-03-17 04:21:00,
2013-03-16 22:26:00,23.0,15.6,30.07,SE,135,6.0,12.0,73,0.00,,,0.03,VWS V14.01,2013-03-17 04:26:00,
2013-03-16 22:31:00,23.0,15.6,30.05,ESE,112,10.0,11.0,73,0.00,,,0.03,VWS V14.01,2013-03-17 04:31:00,
2013-03-16 22:36:00,23.0,15.6,30.05,ESE,112,6.0,10.0,73,0.00,,,0.03,VWS V14.01,2013-03-17 04:36:00,
2013-03-16 22:41:00,23.0,15.6,30.05,SE,135,6.0,7.0,73,0.00,,,0.03,VWS V14.01,2013-03-17 04:41:00,
2013-03-16 22:46:00,23.0,15.6,30.05,ESE,112,7.0,8.0,73,0.00,,,0.03,VWS V14.01,2013-03-17 04:46:00,
2013-03-16 22:51:00,23.0,16.3,30.05,ESE,112,10.0,12.0,75,0.00,,,0.03,VWS V14.01,2013-03-17 04:51:00,
2013-03-16 22:56:00,23.0,16.0,30.05,SE,135,5.0,8.0,74,0.00,,,0.03,VWS V14.01,2013-03-17 04:56:00,
2013-03-16 23:01:00,23.0,16.3,30.05,SE,135,7.0,10.0,75,0.00,,,0.03,VWS V14.01,2013-03-17 05:01:00,
2013-03-16 23:06:00,23.0,16.0,30.05,SE,135,6.0,9.0,74,0.00,,,0.03,VWS V14.01,2013-03-17 05:06:00,
2013-03-16 23:11:00,23.0,15.6,30.06,SE,135,9.0,9.0,73,0.00,,,0.03,VWS V14.01,2013-03-17 05:11:00,
2013-03-16 23:16:00,23.0,15.6,30.06,SSE,157,7.0,7.0,73,0.00,,,0.03,VWS V14.01,2013-03-17 05:16:00,
2013-03-16 23:21:00,23.0,15.6,30.05,SE,135,7.0,9.0,73,0.00,,,0.03,VWS V14.01,2013-03-17 05:21:00,
2013-03-16 23:26:00,23.0,15.6,30.05,SE,135,7.0,10.0,73,0.00,,,0.03,VWS V14.01,2013-03-17 05:26:00,
2013-03-16 23:31:00,24.0,16.6,30.05,SE,135,9.0,9.0,73,0.00,,,0.03,VWS V14.01,2013-03-17 05:31:00,
2013-03-16 23:36:00,24.0,16.3,30.05,SE,135,7.0,9.0,72,0.00,,,0.03,VWS V14.01,2013-03-17 05:36:00,
2013-03-16 23:41:00,24.0,16.3,30.04,SSE,157,8.0,10.0,72,0.00,,,0.03,VWS V14.01,2013-03-17 05:41:00,
2013-03-16 23:47:00,24.0,16.0,30.04,SSE,157,9.0,12.0,71,0.00,,,0.03,VWS V14.01,2013-03-17 05:47:00,
2013-03-16 23:52:00,24.0,16.0,30.03,SSE,157,10.0,12.0,71,0.00,,,0.03,VWS V14.01,2013-03-17 05:52:00,
2013-03-16 23:57:00,24.0,15.6,30.03,SE,135,9.0,12.0,70,0.00,,,0.03,VWS V14.01,2013-03-17 05:57:00,